Weather History for CYQL - October, 2011

Change the Weather History Date:

Sunday, October 30, 2011

  Actual Average Record
Temperature  
Mean Temperature 50 °F -  
Max Temperature 62 °F 40 °F 62 °F (1999)
Min Temperature 37 °F 19 °F -13 °F (2002)
Degree Days  
Heating Degree Days 16    
Moisture  
Dew Point 29 °F    
Average Humidity 48    
Maximum Humidity 66    
Minimum Humidity 22    
Precipitation  
Precipitation 0.00 in 0.02 in - ()
Sea Level Pressure  
Sea Level Pressure 29.93 in    
Wind  
Wind Speed 16 mph ()    
Max Wind Speed 29 mph    
Max Gust Speed 39 mph    
Visibility 11.4 miles    
Events      
Averages and records for this station are not official NWS values.
T = Trace of Precipitation, MM = Missing Value Source: Averaged Metar Reports

Daily Weather History Graph

Daily Weather History Graph

Search for Another Location

Airport or City:

Trip Planner

Search our weather history database for the weather conditions in past years. The results will help you decide how hot, cold, wet, or windy it might be!

Date:

Astronomy

Oct. 30, 2011 Rise Set
Actual Time 8:16 AM MDT 6:12 PM MDT
Civil Twilight 7:42 AM MDT 6:45 PM MDT
Nautical Twilight 7:05 AM MDT 7:23 PM MDT
Astronomical Twilight 6:27 AM MDT 8:00 PM MDT
Moon 12:56 PM MDT (10/30) 9:29 PM MDT (10/30)
Length of Visible Light 11h 03m
Length of Day
9h 56m
Waxing Crescent, 20% of the Moon is Illuminated
Oct 30
Waxing Crescent
Nov 2
First Quarter
Nov 10
Full
Nov 18
Last Quarter
Nov 24
New

Hourly Weather History & Observations

Time (MDT) Temp. Windchill Dew Point Humidity Pressure Visibility Wind Dir Wind Speed Gust Speed Precip Events Conditions
12:00 AM 39 °F - 23 °F 40% 30.09 in 10 mi West 17.3 mph - -  
12:00 AM 39.2 °F 29.8 °F 23.0 °F 52% 30.09 in 9.0 mi West 18.4 mph - N/A   Clear
1:00 AM 39.2 °F 30.2 °F 23.0 °F 52% 30.08 in 9.0 mi West 17.3 mph 24.2 mph N/A   Clear
3:00 AM 41.0 °F 32.2 °F 24.8 °F 53% 30.08 in 9.0 mi West 18.4 mph 26.5 mph N/A   Clear
4:00 AM 41.0 °F 32.2 °F 24.8 °F 53% 30.06 in 9.0 mi West 18.4 mph 26.5 mph N/A   Clear
5:00 AM 37.4 °F 29.8 °F 24.8 °F 60% 30.06 in 9.0 mi WSW 11.5 mph 17.3 mph N/A   Partly Cloudy
5:30 AM 44.6 °F 35.9 °F 23.0 °F 43% 30.03 in 9.0 mi West 23.0 mph - N/A   Overcast
6:00 AM 44 °F - 23 °F 30% 30.03 in 10 mi West 18.4 mph - -   Overcast
6:00 AM 44.6 °F 36.6 °F 23.0 °F 43% 30.03 in 15.0 mi West 19.6 mph - N/A   Mostly Cloudy
7:00 AM 42.8 °F 37.0 °F 23.0 °F 46% 30.01 in 15.0 mi SW 10.4 mph 20.7 mph N/A   Mostly Cloudy
8:00 AM 44.6 °F 36.4 °F 23.0 °F 43% 29.99 in 40.0 mi SW 20.7 mph - N/A   Mostly Cloudy
9:00 AM 44.6 °F 36.4 °F 26.6 °F 49% 29.95 in 40.0 mi SW 20.7 mph 27.6 mph N/A   Mostly Cloudy
10:00 AM 48.2 °F - 28.4 °F 46% 29.92 in 40.0 mi SW 24.2 mph 38.0 mph N/A   Mostly Cloudy
11:00 AM 53.6 °F - 28.4 °F 38% 29.93 in 40.0 mi SW 23.0 mph 32.2 mph N/A   Scattered Clouds
12:00 PM 58 °F - 29 °F 22% 29.88 in 10 mi WSW 26.5 mph - -  
2:00 PM 62.6 °F - 32.0 °F 32% 29.84 in 40.0 mi WSW 28.8 mph 39.1 mph N/A   Scattered Clouds
3:00 PM 60.8 °F - 33.8 °F 36% 29.81 in 40.0 mi WSW 26.5 mph 35.7 mph N/A   Scattered Clouds
5:00 PM 57.2 °F - 35.6 °F 44% 29.82 in 40.0 mi West 23.0 mph 31.1 mph N/A   Partly Cloudy
6:00 PM 53 °F - 35 °F 39% 29.82 in 10 mi WSW 17.3 mph - -  
6:00 PM 53.6 °F - 35.6 °F 51% 29.81 in 40.0 mi WSW 17.3 mph 24.2 mph N/A   Partly Cloudy
7:00 PM 46.4 °F - 33.8 °F 62% 29.81 in 15.0 mi SE 2.3 mph - N/A   Partly Cloudy
8:00 PM 46.4 °F 43.5 °F 35.6 °F 66% 29.81 in 15.0 mi WNW 5.8 mph - N/A   Partly Cloudy
9:00 PM 48.2 °F - 37.4 °F 66% 29.81 in 15.0 mi West 15.0 mph - N/A   Clear
10:00 PM 48.2 °F - 37.4 °F 66% 29.80 in 15.0 mi West 15.0 mph - N/A   Clear
11:00 PM 48.2 °F - 37.4 °F 66% 29.79 in 9.0 mi West 10.4 mph - N/A   Clear